Location: Quedlinburg
(51.7921°N, 11.1414°E)
Time: 09:20:31
(UTC+02:00)

RS-44 - Pass Details

Date: 18 March 2026
Orbit: 1175 x 1510 km, 82.5° (Epoch: 17 April)

Event Time Altitude Azimuth Distance (km) Brightness Sun altitude
Rises 01:32:25 0° 349° (N) 4,388 ? -37.2°
Reaches altitude 10° 01:35:16 10° 354° (N) 3,457 ? -37.0°
Maximum altitude 01:43:22 53° 71° (ENE) 1,739 ? -36.5°
Enters shadow 01:45:46 42° 114° (ESE) 1,971 ? -36.4°
